Location: Newark
(43.0492°N, 2.7892°E)
Time: 14:21:49
(UTC+00:00)

ISS - Visible Passes

Search period start: 23 January 2020 00:00
Search period end: 02 February 2020 00:00
Orbit: 415 x 421 km, 51.6° (Epoch: 23 January)

Date Brightness Start Highest point End Pass type
(mag) Time Alt. Az. Time Alt. Az. Time Alt. Az.
23 Jan -3.6 18:10:40 10° WSW 18:14:01 70° NNW 18:15:23 33° NE visible
24 Jan -3.7 17:22:39 10° SW 17:26:00 73° SE 17:29:22 10° ENE visible
24 Jan -1.8 19:00:08 10° WNW 19:02:22 24° NW 19:02:22 24° NW visible
25 Jan -2.5 18:11:45 10° W 18:14:51 33° NNW 18:16:22 22° NNE visible
26 Jan -3.0 17:23:27 10° WSW 17:26:43 47° NNW 17:29:59 10° NE visible
26 Jan -1.4 19:01:32 10° WNW 19:03:16 18° NNW 19:03:16 18° NNW visible
27 Jan -1.9 18:13:06 10° WNW 18:15:49 22° NNW 18:17:11 17° NNE visible
28 Jan -2.2 17:24:39 10° WNW 17:27:34 26° NNW 17:30:30 10° NE visible
28 Jan -1.3 19:02:39 10° NW 19:04:01 16° NNW 19:04:01 16° NNW visible
29 Jan -1.8 18:14:21 10° NW 18:16:50 19° N 18:17:54 16° NNE visible
30 Jan -1.8 17:25:57 10° WNW 17:28:31 20° N 17:31:05 10° NE visible
30 Jan -1.4 19:03:23 10° NW 19:04:43 17° NNW 19:04:43 17° NNW visible
31 Jan -2.0 18:15:14 10° NW 18:17:49 20° N 18:18:38 18° NNE visible
01 Feb -1.8 19:03:49 10° NW 19:05:31 23° NNW 19:05:31 23° NNW visible
